DELTA 4 R/B, 40535

Orbit data source: Space-Track

DELTA 4 R/B, 40535 is space debris in MEO originally from a launch on Wed, 25 Mar 2015 UTC launched from the Air Force Eastern Test Range (AFETR). Debris objects in space refer to the collection of defunct objects orbiting the Earth. Examples of debris include non-operational satellites, rocket bodies, and fragments generated from explosions, collisions, or faulty payload assembly.

Loading next visibility...
Identifier
40535, 2015-013B
Orbit
MEO
Country
Flag of USUS
Related business
Flag of USUnited Launch Alliance/Lockheed Martin (US)
Manufacturer
ULA Decatur
Mission
Spacecraft
Bus & Motor
DCSS-4, RL10B-2
Mass
2,850 kg wet, 2,850 kg dry
Launch date (UTC)
2015-03-25 (11 years ago)
Launch vehicle
Unknown
Launch site
Air Force Eastern Test Range (AFETR)
Object type
Payload
Rocket body
Debris
Shape & HBR
Cyl + 1 Nozzle, 6.0 m
Radar Cross Section
43.982 m², Large (>1 m²)

Expand to show TLE details & history
Last TLE update: 2 days ago

TLE from 2 days ago
0 DELTA 4 R/B
1 40535U 15013B   26207.34842753  .00000077  00000-0  00000-0 0  9994
2 40535  52.6359 214.6330 0032925  67.5992 292.7856  1.92974809 79911
Epoch: 2026-07-26T08:21Z
TLE epoch observation values (Epoch: 2026-07-26T08:21:44.138Z)
Latitude
0.00001°
Longitude
145.16112°
Altitude
20,839.775 km
Speed
3.829 km/s
True Right ascension
14h 18m 34s
True Declination
0° 00' 00"
Sunlit
Object was in daylight at epoch
Visualization orbit readout
Latitude
Unknown
Longitude
Unknown
Altitude
Unknown
Speed
Unknown
Apparent Right ascension
Unknown
Apparent Declination
Unknown
Sunlit
N/A
Visualization observer readout
Local Sidereal Time
14:18:26
Azimuth
Unknown
Elevation
Unknown
Doppler factor
Unknown
Orbital elements
Apogee altitude
20,963.884 km
Perigee altitude
20,784.428 km
Semi-major axis
27,252.293 km
Eccentricity
0.00329
Inclination
52.6359°
RAAN
214.633°
Arg. of periapsis
67.5992°
True anomaly
292.4372°
Mean anomaly
292.7856°
Eccentric anomaly
292.61145°
Mean motion
0.48243 °/min
Orbital period
746.21 mins
BSTAR
0
Loading maneuver chart data...
Computing Atmospheric mass density...
Loading historical data...
Loading historical data...
Loading historical data...
Loading historical data...
Loading historical data...
Loading historical data...
Loading historical data...

Documentation

Showing up to 5 results
|